Location: Doschendorf
(50.0069°N, 11.0602°E)
Time: 18:45:13
(UTC+00:00)

NOSS 3-2 (C) - Pass Details

Date: 17 November 2019
Orbit: 821 x 1392 km, 63.4° (Epoch: 25 November)

Event Time Altitude Azimuth Distance (km) Brightness Sun altitude
Rises 18:13:42 0° 312° (NW) 3,823 7.3 -26.1°
Reaches altitude 10° 18:16:22 10° 319° (NW) 2,949 6.5 -26.5°
Maximum altitude 18:23:09 45° 31° (NNE) 1,591 4.3 -27.6°
Enters shadow 18:23:34 45° 40° (NE) 1,607 4.3 -27.7°
